Regional Weather Roundup
Issued by NWS

Home | Current Version | Previous Version | Text Only | Print | Product List | Glossary Off
Versions: 1 2 3 4 5 6 7 8 9 10 11 12 13 14 15 16 17 18 19 20 21 22 23 24 25 26 27 28 29 30 31 32 33 34 35 36 37 38 39 40 41 42 43 44 45 46 47 48 49 50

000
ASUS43 KDMX 282008
RWRIA

WEATHER ROUNDUP FOR IOWA
NATIONAL WEATHER SERVICE DES MOINES IA
300 PM CDT SUN AUG 28 2016

NOTE: "FAIR" INDICATES FEW OR NO CLOUDS BELOW 12,000 FEET WITH NO
SIGNIFICANT WEATHER AND/OR OBSTRUCTIONS TO VISIBILITY.

* - THESE STATIONS ARE NOT NWS STATIONS...THUS NOT UNDER NWS
QUALITY CONTROL.  THEY ALSO DO NOT REPORT WEATHER SUCH
AS PRECIPITATION OR FOG.

IAZ001>003-012>014-020>022-031>034-043>046-282100-
   NORTHWEST IOWA

CITY           SKY/WX    TMP DP  RH WIND       PRES   REMARKS
CARROLL *      MOSUNNY   86  72  62 SE6G13    30.09F HX  92
CHEROKEE *     CLOUDY    86  74  67 S13       30.09F HX  94
DENISON *      HAZE      86  73  66 S8        30.07F VSB<1/4 HX  93
LE MARS *      MOSUNNY   90  72  55 S14G20    30.07F HX  96
ORANGE CITY *  MOSUNNY   86  73  66 S12G18    30.08F HX  93
SHELDON *      MOSUNNY   86  75  70 S15       30.07F HX  95
SIOUX CITY     MOSUNNY   87  74  64 S13       30.06F HX  95
SPENCER        MOSUNNY   86  71  60 SE13      30.10F HX  91
STORM LAKE *   PTSUNNY   82  75  78 SE9G15    30.11F HX  89
$$

IAZ055>058-069>071-079>083-090>094-282100-
   SOUTHWEST IOWA

CITY           SKY/WX    TMP DP  RH WIND       PRES   REMARKS
ATLANTIC *     CLOUDY    88  73  62 S9        30.07F HX  96
AUDUBON *      MOSUNNY   88  73  62 S7        30.10F HX  96
CLARINDA *       N/A     90  73  58 MISG      30.09F HX  98
COUNCIL BLFS * CLOUDY    88  73  62 SE9       30.07F HX  96
CRESTON *      CLOUDY    77  68  73 S9G16     30.12F
HARLAN  *      MOSUNNY   88  73  62 VRB6G12   30.11F HX  96
LAMONI         CLOUDY    82  74  76 SE6       30.10F HX  88
RED OAK *      MOSUNNY   84  75  74 SE6       30.08F HX  92
SHENANDOAH *   MOSUNNY   86 -27   1 SE3       30.07F HX  81
$$

IAZ047>049-059>061-072>074-084-282100-
   CENTRAL IOWA

CITY           SKY/WX    TMP DP  RH WIND       PRES   REMARKS
AMES           MOSUNNY   86  75  69 CALM      30.10F HX  95
ANKENY *         N/A    N/A N/A N/A MISG        N/A
BOONE *        PTSUNNY   86  72  62 S8        30.10F HX  92
CHARITON *       N/A     88  73  62 MISG      30.09F HX  96
DES MOINES     PTSUNNY   88  72  58 SE7       30.08F HX  94
GRINNELL*      PTSUNNY   87  70  56 S5        30.12F HX  91
KNOXVILLE *    PTSUNNY   84  72  65 NE7G14    30.09F HX  89
MARSHALLTOWN   MOSUNNY   85  73  67 SE7       30.11F HX  91
NEWTON *       MOSUNNY   86  73  66 SE6       30.10F HX  93
PERRY *          N/A     85  76  74 SE8       30.09F HX  95
$$

IAZ004>006-015-016-023>025-035-036-282100-
   NORTH CENTRAL IOWA

CITY           SKY/WX    TMP DP  RH WIND       PRES   REMARKS
ALGONA *       CLOUDY    82  72  69 SE10      30.12F HX  87
ESTHERVILLE    SUNNY     83  72  69 S16       30.11F HX  88
FORT DODGE *   MOSUNNY   84  70  61 S6        30.12F HX  88
MASON CITY     CLOUDY    82  71  69 SE8       30.15F HX  86
FOREST CITY *    N/A    N/A N/A N/A MISG        N/A
WEBSTER CITY * SUNNY     86  70  58 S8        30.10F HX  90
IOWA FALLS *     N/A     85  73  65 S7        30.14F HX  91
$$

IAZ007>011-017>019-026>030-037>042-050>054-066-282100-
   NORTHEAST IOWA

CITY           SKY/WX    TMP DP  RH WIND       PRES   REMARKS
CEDAR RAPIDS   MOSUNNY   80  70  71 SE7       30.12F HX  83
CHARLES CITY * MOSUNNY   81  73  78 S6G13     30.15F HX  85
CLINTON *      MOSUNNY   85  74  69 NE5       30.14F HX  92
DECORAH *      MOSUNNY   81  70  69 E3        30.15F HX  84
DUBUQUE        MOSUNNY   84  69  60 CALM      30.17S HX  88
MONTICELLO *   MOSUNNY   86  73  66 CALM      30.13F HX  93
OELWEIN *      PTSUNNY   82  73  74 VRB3      30.15F HX  88
WATERLOO       MOSUNNY   84  71  65 NE6       30.12F HX  89
$$

IAZ064-065-067-068-078-282100-
   EAST CENTRAL IOWA

CITY           SKY/WX    TMP DP  RH WIND       PRES   REMARKS
DAVENPORT      CLOUDY    87  72  60 VRB3      30.13F HX  93
IOWA CITY      MOSUNNY   86  73  65 SE6       30.13F HX  93
MT. PLEASANT * MOSUNNY   91  72  54 S6        30.12F HX  98
MUSCATINE *    SUNNY     88  70  55 SE5       30.11F HX  92
QUAD CITIES    SUNNY     88  72  58 SE6       30.12F HX  94
$$

IAZ062-063-075>077-085>089-095>099-282100-
   SOUTHEAST IOWA

CITY           SKY/WX    TMP DP  RH WIND       PRES   REMARKS
BURLINGTON     SUNNY     87  75  67 SE5       30.12F HX  96
FAIRFIELD *    MOSUNNY   88  72  58 SE9       30.11F HX  94
FORT MADISON *   N/A     88  73  62 S6        30.13F HX  96
KEOKUK *       CLOUDY    84  73  70 CALM      30.12F HX  91
OSKALOOSA *      N/A     85  71  63 S5        30.12F HX  90
CENTERVILLE *    N/A     88  73  62 E6        30.13F HX  96
OTTUMWA        MOSUNNY   80  65  59 SE6       30.11F HX  82
WASHINGTON *   MOSUNNY   86  75  70 SE6       30.13F HX  95
$$

ABBREVIATIONS USED IN REMARKS
   TC - TEMPERATURES IN CELSIUS
  WCI - WIND CHILL INDEX
   HX - HEAT INDEX
  VSB - VISIBILITY
$$




USA.gov is the U.S. government's official web portal to all federal, state and local government web resources and services.